Year,Month,Day,Hour,Minute,Value (Times are PST for temperature in C)
2015,04,20,00,00,12.00
2015,04,20,00,01,11.90
2015,04,20,00,02,11.90
2015,04,20,00,03,11.90
2015,04,20,00,04,11.90
2015,04,20,00,05,11.90
2015,04,20,00,06,11.90
2015,04,20,00,07,11.90
2015,04,20,00,08,11.90
2015,04,20,00,09,11.80
2015,04,20,00,10,11.80
2015,04,20,00,11,11.80
2015,04,20,00,12,11.80
2015,04,20,00,13,11.80
2015,04,20,00,14,11.80
2015,04,20,00,15,11.80
2015,04,20,00,16,11.80
2015,04,20,00,17,11.80
2015,04,20,00,18,11.80
2015,04,20,00,19,11.80
2015,04,20,00,20,11.80
2015,04,20,00,21,11.80
2015,04,20,00,22,11.80
2015,04,20,00,23,11.80
2015,04,20,00,24,11.80
2015,04,20,00,25,11.80
2015,04,20,00,26,11.80
2015,04,20,00,27,11.80
2015,04,20,00,28,11.80
2015,04,20,00,29,11.80
2015,04,20,00,30,11.80
2015,04,20,00,31,11.80
2015,04,20,00,32,11.70
2015,04,20,00,33,11.70
2015,04,20,00,34,11.70
2015,04,20,00,35,11.70
2015,04,20,00,36,11.70
2015,04,20,00,37,11.70
2015,04,20,00,38,11.80
2015,04,20,00,39,11.70
2015,04,20,00,40,11.70
2015,04,20,00,41,11.70
2015,04,20,00,42,11.70
2015,04,20,00,43,11.70
2015,04,20,00,44,11.70
2015,04,20,00,45,11.70
2015,04,20,00,46,11.70
2015,04,20,00,47,11.70
2015,04,20,00,48,11.70
2015,04,20,00,49,11.70
2015,04,20,00,50,11.70
2015,04,20,00,51,11.70
2015,04,20,00,52,11.70
2015,04,20,00,53,11.70
2015,04,20,00,54,11.70
2015,04,20,00,55,11.70
2015,04,20,00,56,11.70
2015,04,20,00,57,11.60
2015,04,20,00,58,11.60
2015,04,20,00,59,11.60
2015,04,20,01,00,11.60
2015,04,20,01,01,11.60
2015,04,20,01,02,11.50
2015,04,20,01,03,11.50
2015,04,20,01,04,11.50
2015,04,20,01,05,11.40
2015,04,20,01,06,11.40
2015,04,20,01,07,11.40
2015,04,20,01,08,11.40
2015,04,20,01,09,11.30
2015,04,20,01,10,11.30
2015,04,20,01,11,11.30
2015,04,20,01,12,11.30
2015,04,20,01,13,11.30
2015,04,20,01,14,11.30
2015,04,20,01,15,11.30
2015,04,20,01,16,11.30
2015,04,20,01,17,11.30
2015,04,20,01,18,11.30
2015,04,20,01,19,11.30
2015,04,20,01,20,11.30
2015,04,20,01,21,11.20
2015,04,20,01,22,11.20
2015,04,20,01,23,11.20
2015,04,20,01,24,11.20
2015,04,20,01,25,11.20
2015,04,20,01,26,11.20
2015,04,20,01,27,11.20
2015,04,20,01,28,11.20
2015,04,20,01,29,11.20
2015,04,20,01,30,11.10
2015,04,20,01,31,11.10
2015,04,20,01,32,11.10
2015,04,20,01,33,11.10
2015,04,20,01,34,11.10
2015,04,20,01,35,11.10
2015,04,20,01,36,11.10
2015,04,20,01,37,11.10
2015,04,20,01,38,11.10
2015,04,20,01,39,11.10
2015,04,20,01,40,11.10
2015,04,20,01,41,11.10
2015,04,20,01,42,11.10
2015,04,20,01,43,11.10
2015,04,20,01,44,11.10
2015,04,20,01,45,11.10
2015,04,20,01,46,11.10
2015,04,20,01,47,11.00
2015,04,20,01,48,11.00
2015,04,20,01,49,11.00
2015,04,20,01,50,11.00
2015,04,20,01,51,11.00
2015,04,20,01,52,11.00
2015,04,20,01,53,11.00
2015,04,20,01,54,11.00
2015,04,20,01,55,11.00
2015,04,20,01,56,11.10
2015,04,20,01,57,11.10
2015,04,20,01,58,11.10
2015,04,20,01,59,11.10
2015,04,20,02,00,11.10
2015,04,20,02,01,11.00
2015,04,20,02,02,11.10
2015,04,20,02,03,11.10
2015,04,20,02,04,11.10
2015,04,20,02,05,11.10
2015,04,20,02,06,11.10
2015,04,20,02,07,11.10
2015,04,20,02,08,11.10
2015,04,20,02,09,11.10
2015,04,20,02,10,11.10
2015,04,20,02,11,11.10
2015,04,20,02,12,11.10
2015,04,20,02,13,11.10
2015,04,20,02,14,11.10
2015,04,20,02,15,11.10
2015,04,20,02,16,11.10
2015,04,20,02,17,11.10
2015,04,20,02,18,11.10
2015,04,20,02,19,11.10
2015,04,20,02,20,11.10
2015,04,20,02,21,11.10
2015,04,20,02,22,11.10
2015,04,20,02,23,11.10
2015,04,20,02,24,11.00
2015,04,20,02,25,11.00
2015,04,20,02,26,11.00
2015,04,20,02,27,10.90
2015,04,20,02,28,10.90
2015,04,20,02,29,10.90
2015,04,20,02,30,10.90
2015,04,20,02,31,10.90
2015,04,20,02,32,10.80
2015,04,20,02,33,10.80
2015,04,20,02,34,10.80
2015,04,20,02,35,10.80
2015,04,20,02,36,10.80
2015,04,20,02,37,10.70
2015,04,20,02,38,10.70
2015,04,20,02,39,10.70
2015,04,20,02,40,10.70
2015,04,20,02,41,10.60
2015,04,20,02,42,10.60
2015,04,20,02,43,10.60
2015,04,20,02,44,10.60
2015,04,20,02,45,10.60
2015,04,20,02,46,10.60
2015,04,20,02,47,10.60
2015,04,20,02,48,10.50
2015,04,20,02,49,10.50
2015,04,20,02,50,10.50
2015,04,20,02,51,10.50
2015,04,20,02,52,10.50
2015,04,20,02,53,10.40
2015,04,20,02,54,10.40
2015,04,20,02,55,10.40
2015,04,20,02,56,10.40
2015,04,20,02,57,10.40
2015,04,20,02,58,10.40
2015,04,20,02,59,10.40
2015,04,20,03,00,10.40
2015,04,20,03,01,10.40
2015,04,20,03,02,10.40
2015,04,20,03,03,10.40
2015,04,20,04,02,9.70
2015,04,20,04,03,9.70
2015,04,20,04,04,9.70
2015,04,20,04,05,9.70
2015,04,20,04,06,9.70
2015,04,20,04,07,9.70
2015,04,20,04,08,9.70
2015,04,20,04,09,9.60
2015,04,20,04,10,9.60
2015,04,20,04,11,9.60
2015,04,20,04,12,9.60
2015,04,20,04,13,9.60
2015,04,20,04,14,9.60
2015,04,20,04,15,9.60
2015,04,20,04,16,9.60
2015,04,20,04,17,9.60
2015,04,20,04,18,9.60
2015,04,20,04,19,9.60
2015,04,20,04,20,9.50
2015,04,20,04,21,9.50
2015,04,20,04,22,9.50
2015,04,20,04,23,9.40
2015,04,20,04,24,9.40
2015,04,20,04,25,9.40
2015,04,20,04,26,9.40
2015,04,20,04,27,9.40
2015,04,20,04,28,9.40
2015,04,20,04,29,9.40
2015,04,20,04,30,9.40
2015,04,20,04,31,9.40
2015,04,20,04,32,9.40
2015,04,20,04,33,9.40
2015,04,20,04,34,9.40
2015,04,20,04,35,9.30
2015,04,20,04,36,9.30
2015,04,20,04,37,9.30
2015,04,20,04,38,9.30
2015,04,20,04,39,9.30
2015,04,20,04,40,9.30
2015,04,20,04,41,9.30
2015,04,20,04,42,9.30
2015,04,20,04,43,9.20
2015,04,20,04,44,9.20
2015,04,20,04,45,9.20
2015,04,20,04,46,9.30
2015,04,20,04,47,9.30
2015,04,20,04,48,9.30
2015,04,20,04,49,9.30
2015,04,20,04,50,9.30
2015,04,20,04,51,9.20
2015,04,20,04,52,9.20
2015,04,20,04,53,9.20
2015,04,20,04,54,9.20
2015,04,20,04,55,9.20
2015,04,20,04,56,9.20
2015,04,20,04,57,9.20
2015,04,20,04,58,9.20
2015,04,20,04,59,9.20
2015,04,20,05,00,9.20
2015,04,20,05,01,9.20
2015,04,20,05,02,9.20
2015,04,20,05,03,9.20
2015,04,20,05,04,9.20
2015,04,20,05,05,9.20
2015,04,20,05,06,9.20
2015,04,20,05,07,9.20
2015,04,20,05,08,9.20
2015,04,20,05,09,9.20
2015,04,20,05,10,9.20
2015,04,20,05,11,9.10
2015,04,20,05,12,9.10
2015,04,20,05,13,9.10
2015,04,20,05,14,9.10
2015,04,20,05,15,9.10
2015,04,20,05,16,9.10
2015,04,20,05,17,9.00
2015,04,20,05,18,9.00
2015,04,20,05,19,9.00
2015,04,20,05,20,8.90
2015,04,20,05,21,8.90
2015,04,20,05,22,8.90
2015,04,20,05,23,8.90
2015,04,20,05,24,8.90
2015,04,20,05,25,8.90
2015,04,20,05,26,8.90
2015,04,20,05,27,8.90
2015,04,20,05,28,8.90
2015,04,20,05,29,8.90
2015,04,20,05,30,8.90
2015,04,20,05,31,8.90
2015,04,20,05,32,8.90
2015,04,20,05,33,8.90
2015,04,20,05,34,8.90
2015,04,20,05,35,9.00
2015,04,20,05,36,9.00
2015,04,20,05,37,9.00
2015,04,20,05,38,9.00
2015,04,20,05,39,9.00
2015,04,20,05,40,9.00
2015,04,20,05,41,9.00
2015,04,20,05,42,9.00
2015,04,20,05,43,9.00
2015,04,20,05,44,9.00
2015,04,20,05,45,9.00
2015,04,20,05,46,9.00
2015,04,20,05,47,9.00
2015,04,20,05,48,8.90
2015,04,20,05,49,8.90
2015,04,20,05,50,9.00
2015,04,20,05,51,9.00
2015,04,20,05,52,9.00
2015,04,20,05,53,9.00
2015,04,20,05,54,9.00
2015,04,20,05,55,9.00
2015,04,20,05,56,9.00
2015,04,20,05,57,9.00
2015,04,20,05,58,9.00
2015,04,20,05,59,9.00
2015,04,20,06,00,8.90
2015,04,20,06,01,8.90
2015,04,20,06,02,8.90
2015,04,20,06,03,8.90
2015,04,20,06,04,8.90
2015,04,20,06,05,8.90
2015,04,20,06,06,8.80
2015,04,20,06,07,8.80
2015,04,20,06,08,8.80
2015,04,20,06,09,8.80
2015,04,20,06,10,8.80
2015,04,20,06,11,8.80
2015,04,20,06,12,8.70
2015,04,20,06,13,8.70
2015,04,20,06,14,8.70
2015,04,20,06,15,8.70
2015,04,20,06,16,8.70
2015,04,20,06,17,8.60
2015,04,20,06,18,8.60
2015,04,20,06,19,8.60
2015,04,20,06,20,8.60
2015,04,20,06,21,8.60
2015,04,20,06,22,8.50
2015,04,20,06,23,8.50
2015,04,20,06,24,8.50
2015,04,20,06,25,8.40
2015,04,20,06,26,8.40
2015,04,20,06,27,8.40
2015,04,20,06,28,8.30
2015,04,20,06,29,8.30
2015,04,20,06,30,8.30
2015,04,20,06,31,8.30
2015,04,20,06,32,8.30
2015,04,20,06,33,8.30
2015,04,20,06,34,8.30
2015,04,20,06,35,8.20
2015,04,20,06,36,8.20
2015,04,20,06,37,8.20
2015,04,20,06,38,8.20
2015,04,20,06,39,8.10
2015,04,20,06,40,8.10
2015,04,20,06,41,8.10
2015,04,20,06,42,8.10
2015,04,20,06,43,8.20
2015,04,20,06,44,8.20
2015,04,20,06,45,8.20
2015,04,20,06,46,8.20
2015,04,20,06,47,8.20
2015,04,20,06,48,8.30
2015,04,20,06,49,8.30
2015,04,20,06,50,8.40
2015,04,20,06,51,8.40
2015,04,20,06,52,8.50
2015,04,20,06,53,8.60
2015,04,20,06,54,8.60
2015,04,20,06,55,8.60
2015,04,20,06,56,8.70
2015,04,20,06,57,8.70
2015,04,20,06,58,8.70
2015,04,20,06,59,8.70
2015,04,20,07,00,8.70
2015,04,20,07,01,8.80
2015,04,20,07,02,8.80
2015,04,20,07,03,8.80
2015,04,20,07,04,8.80
2015,04,20,07,05,8.90
2015,04,20,07,06,8.90
2015,04,20,07,07,9.00
2015,04,20,07,08,9.00
2015,04,20,07,09,9.00
2015,04,20,07,10,9.10
2015,04,20,07,11,9.10
2015,04,20,07,12,9.20
2015,04,20,07,13,9.20
2015,04,20,07,14,9.30
2015,04,20,07,15,9.30
2015,04,20,07,16,9.30
2015,04,20,07,17,9.40
2015,04,20,07,18,9.40
2015,04,20,07,19,9.50
2015,04,20,07,20,9.50
2015,04,20,07,21,9.60
2015,04,20,07,22,9.60
2015,04,20,07,23,9.60
2015,04,20,07,24,9.60
2015,04,20,07,25,9.70
2015,04,20,07,26,9.70
2015,04,20,07,27,9.70
2015,04,20,07,28,9.70
2015,04,20,07,29,9.80
2015,04,20,07,30,9.80
2015,04,20,07,31,9.80
2015,04,20,07,32,9.80
2015,04,20,07,33,9.90
2015,04,20,07,34,9.90
2015,04,20,07,35,9.90
2015,04,20,07,36,9.90
2015,04,20,07,37,10.00
2015,04,20,07,38,10.00
2015,04,20,07,39,10.10
2015,04,20,07,40,10.10
2015,04,20,07,41,10.10
2015,04,20,07,42,10.10
2015,04,20,07,43,10.10
2015,04,20,07,44,10.10
2015,04,20,07,45,10.20
2015,04,20,07,46,10.20
2015,04,20,07,47,10.20
2015,04,20,07,48,10.30
2015,04,20,07,49,10.30
2015,04,20,07,50,10.30
2015,04,20,07,51,10.40
2015,04,20,07,52,10.40
2015,04,20,07,53,10.40
2015,04,20,07,54,10.40
2015,04,20,07,55,10.40
2015,04,20,07,56,10.50
2015,04,20,07,57,10.50
2015,04,20,07,58,10.50
2015,04,20,07,59,10.60
2015,04,20,08,00,10.60
2015,04,20,08,01,10.60
2015,04,20,08,02,10.60
2015,04,20,08,03,10.60
2015,04,20,08,04,10.60
2015,04,20,08,05,10.60
2015,04,20,08,06,10.60
2015,04,20,08,07,10.60
2015,04,20,08,08,10.70
2015,04,20,08,09,10.70
2015,04,20,08,10,10.70
2015,04,20,08,11,10.70
2015,04,20,08,12,10.70
2015,04,20,08,13,10.80
2015,04,20,08,14,10.80
2015,04,20,08,15,10.90
2015,04,20,08,16,10.90
2015,04,20,08,17,11.00
2015,04,20,08,18,11.00
2015,04,20,08,19,11.10
2015,04,20,08,20,11.10
2015,04,20,08,21,11.20
2015,04,20,08,22,11.20
2015,04,20,08,23,11.20
2015,04,20,08,24,11.30
2015,04,20,08,25,11.30
2015,04,20,08,26,11.30
2015,04,20,08,27,11.40
2015,04,20,08,28,11.40
2015,04,20,08,29,11.50
2015,04,20,08,30,11.50
2015,04,20,08,31,11.50
2015,04,20,08,32,11.60
2015,04,20,08,33,11.60
2015,04,20,08,34,11.60
2015,04,20,08,35,11.60
2015,04,20,08,36,11.60
2015,04,20,08,37,11.60
2015,04,20,08,38,11.70
2015,04,20,08,39,11.70
2015,04,20,08,40,11.80
2015,04,20,08,41,11.80
2015,04,20,08,42,11.90
2015,04,20,08,43,11.90
2015,04,20,08,44,12.00
2015,04,20,08,45,12.00
2015,04,20,08,46,12.10
2015,04,20,08,47,12.10
2015,04,20,08,48,12.20
2015,04,20,08,49,12.30
2015,04,20,08,50,12.40
2015,04,20,08,51,12.40
2015,04,20,08,52,12.40
2015,04,20,08,53,12.50
2015,04,20,08,54,12.50
2015,04,20,08,55,12.60
2015,04,20,08,56,12.60
2015,04,20,08,57,12.60
2015,04,20,08,58,12.60
2015,04,20,08,59,12.70
2015,04,20,09,00,12.70
2015,04,20,09,01,12.70
2015,04,20,09,02,12.70
2015,04,20,09,03,12.80
2015,04,20,09,04,12.80
2015,04,20,09,05,12.80
2015,04,20,09,06,12.80
2015,04,20,09,07,12.80
2015,04,20,09,08,12.80
2015,04,20,09,09,12.90
2015,04,20,09,10,12.90
2015,04,20,09,11,13.00
2015,04,20,09,12,13.10
2015,04,20,09,13,13.10
2015,04,20,09,14,13.10
2015,04,20,09,15,13.20
2015,04,20,09,16,13.20
2015,04,20,09,17,13.30
2015,04,20,09,18,13.30
2015,04,20,09,19,13.40
2015,04,20,09,20,13.40
2015,04,20,09,21,13.40
2015,04,20,09,22,13.50
2015,04,20,09,23,13.50
2015,04,20,09,24,13.50
2015,04,20,09,25,13.60
2015,04,20,09,26,13.60
2015,04,20,09,27,13.60
2015,04,20,09,28,13.70
2015,04,20,09,29,13.70
2015,04,20,09,30,13.80
2015,04,20,09,31,13.80
2015,04,20,09,32,13.80
2015,04,20,09,33,13.90
2015,04,20,09,34,13.90
2015,04,20,09,35,14.00
2015,04,20,09,36,14.10
2015,04,20,09,37,14.10
2015,04,20,09,38,14.20
2015,04,20,09,39,14.20
2015,04,20,09,40,14.20
2015,04,20,09,41,14.30
2015,04,20,09,42,14.30
2015,04,20,09,43,14.30
2015,04,20,09,44,14.30
2015,04,20,09,45,14.30
2015,04,20,09,46,14.30
2015,04,20,09,47,14.30
2015,04,20,09,48,14.40
2015,04,20,09,49,14.40
2015,04,20,09,50,14.50
2015,04,20,09,51,14.60
2015,04,20,09,52,14.60
2015,04,20,09,53,14.60
2015,04,20,09,54,14.70
2015,04,20,09,55,14.70
2015,04,20,09,56,14.70
2015,04,20,09,57,14.80
2015,04,20,09,58,14.80
2015,04,20,09,59,14.90
2015,04,20,10,00,14.90
2015,04,20,10,01,14.90
2015,04,20,10,02,14.90
2015,04,20,10,03,14.90
2015,04,20,10,04,15.00
2015,04,20,10,05,15.00
2015,04,20,10,06,15.00
2015,04,20,10,07,14.90
2015,04,20,10,08,14.90
2015,04,20,10,09,14.90
2015,04,20,10,10,15.00
2015,04,20,10,11,15.00
2015,04,20,10,12,15.10
2015,04,20,10,13,15.10
2015,04,20,10,14,15.10
2015,04,20,10,15,15.20
2015,04,20,10,16,15.20
2015,04,20,10,17,15.20
2015,04,20,10,18,15.30
2015,04,20,10,19,15.30
2015,04,20,10,20,15.30
2015,04,20,10,21,15.30
2015,04,20,10,22,15.30
2015,04,20,10,23,15.30
2015,04,20,10,24,15.20
2015,04,20,10,25,15.20
2015,04,20,10,26,15.20
2015,04,20,10,27,15.20
2015,04,20,10,28,15.20
2015,04,20,10,29,15.10
2015,04,20,10,30,15.10
2015,04,20,10,31,15.10
2015,04,20,10,32,15.10
2015,04,20,10,33,15.10
2015,04,20,10,34,15.10
2015,04,20,10,35,15.10
2015,04,20,10,36,15.10
2015,04,20,10,37,15.10
2015,04,20,10,38,15.10
2015,04,20,10,39,15.10
2015,04,20,10,40,15.10
2015,04,20,10,41,15.10
2015,04,20,10,42,15.10
2015,04,20,10,43,15.20
2015,04,20,10,44,15.30
2015,04,20,10,45,15.40
2015,04,20,10,46,15.40
2015,04,20,10,47,15.40
2015,04,20,10,48,15.40
2015,04,20,10,49,15.30
2015,04,20,10,50,15.30
2015,04,20,10,51,15.30
2015,04,20,10,52,15.20
2015,04,20,10,53,15.20
2015,04,20,10,54,15.30
2015,04,20,10,55,15.30
2015,04,20,10,56,15.40
2015,04,20,10,57,15.50
2015,04,20,10,58,15.60
2015,04,20,10,59,15.70
2015,04,20,11,00,15.70
2015,04,20,11,01,15.80
2015,04,20,11,02,15.80
2015,04,20,11,03,15.80
2015,04,20,11,04,15.90
2015,04,20,11,05,16.00
2015,04,20,11,06,16.10
2015,04,20,11,07,16.10
2015,04,20,11,08,16.10
2015,04,20,11,09,16.20
2015,04,20,11,10,16.20
2015,04,20,11,11,16.20
2015,04,20,11,12,16.20
2015,04,20,11,13,16.20
2015,04,20,11,14,16.20
2015,04,20,11,15,16.30
2015,04,20,11,16,16.40
2015,04,20,11,17,16.50
2015,04,20,11,18,16.60
2015,04,20,11,19,16.60
2015,04,20,11,20,16.60
2015,04,20,11,21,16.60
2015,04,20,11,22,16.60
2015,04,20,11,23,16.50
2015,04,20,11,24,16.40
2015,04,20,11,25,16.30
2015,04,20,11,26,16.20
2015,04,20,11,27,16.20
2015,04,20,11,28,16.20
2015,04,20,11,29,16.30
2015,04,20,11,30,16.30
2015,04,20,11,31,16.30
2015,04,20,11,32,16.40
2015,04,20,11,33,16.40
2015,04,20,11,34,16.40
2015,04,20,11,35,16.40
2015,04,20,11,36,16.40
2015,04,20,11,37,16.40
2015,04,20,11,38,16.40
2015,04,20,11,39,16.40
2015,04,20,11,40,16.40
2015,04,20,11,41,16.40
2015,04,20,11,42,16.40
2015,04,20,11,43,16.40
2015,04,20,11,44,16.40
2015,04,20,11,45,16.40
2015,04,20,11,46,16.40
2015,04,20,11,47,16.40
2015,04,20,11,48,16.40
2015,04,20,11,49,16.50
2015,04,20,11,50,16.40
2015,04,20,11,51,16.40
2015,04,20,11,52,16.40
2015,04,20,11,53,16.50
2015,04,20,11,54,16.50
2015,04,20,11,55,16.50
2015,04,20,11,56,16.50
2015,04,20,11,57,16.50
2015,04,20,11,58,16.50
2015,04,20,11,59,16.60
2015,04,20,12,00,16.60
2015,04,20,12,01,16.70
2015,04,20,12,02,16.70
2015,04,20,12,03,16.80
2015,04,20,12,04,16.80
2015,04,20,12,05,16.80
2015,04,20,12,06,16.80
2015,04,20,12,07,16.80
2015,04,20,12,08,16.90
2015,04,20,12,09,16.90
2015,04,20,12,10,17.00
2015,04,20,12,11,17.10
2015,04,20,12,12,17.10
2015,04,20,12,13,17.10
2015,04,20,12,14,17.10
2015,04,20,12,15,17.10
2015,04,20,12,16,17.10
2015,04,20,12,17,17.20
2015,04,20,12,18,17.20
2015,04,20,12,19,17.20
2015,04,20,12,20,17.20
2015,04,20,12,21,17.10
2015,04,20,12,22,17.20
2015,04,20,12,23,17.10
2015,04,20,12,24,17.10
2015,04,20,12,25,17.20
2015,04,20,12,26,17.20
2015,04,20,12,27,17.20
2015,04,20,12,28,17.20
2015,04,20,12,29,17.10
2015,04,20,12,30,17.00
2015,04,20,12,31,17.00
2015,04,20,12,32,16.80
2015,04,20,12,33,16.70
2015,04,20,12,34,16.50
2015,04,20,12,35,16.40
2015,04,20,12,36,16.30
2015,04,20,12,37,16.20
2015,04,20,12,38,16.20
2015,04,20,12,39,16.10
2015,04,20,12,40,16.10
2015,04,20,12,41,16.10
2015,04,20,12,42,16.10
2015,04,20,12,43,16.10
2015,04,20,12,44,16.10
2015,04,20,12,45,16.10
2015,04,20,12,46,16.10
2015,04,20,12,47,16.10
2015,04,20,12,48,16.10
2015,04,20,12,49,16.20
2015,04,20,12,50,16.30
2015,04,20,12,51,16.30
2015,04,20,12,52,16.50
2015,04,20,12,53,16.50
2015,04,20,12,54,16.60
2015,04,20,12,55,16.60
2015,04,20,12,56,16.70
2015,04,20,12,57,16.80
2015,04,20,12,58,16.80
2015,04,20,12,59,16.90
2015,04,20,13,00,17.00
2015,04,20,13,01,17.10
2015,04,20,13,02,17.10
2015,04,20,13,03,17.20
2015,04,20,13,04,17.30
2015,04,20,13,05,17.30
2015,04,20,13,06,17.30
2015,04,20,13,07,17.30
2015,04,20,13,08,17.30
2015,04,20,13,09,17.30
2015,04,20,13,10,17.30
2015,04,20,13,11,17.30
2015,04,20,13,12,17.40
2015,04,20,13,13,17.50
2015,04,20,13,14,17.60
2015,04,20,13,15,17.70
2015,04,20,13,16,17.70
2015,04,20,13,17,17.70
2015,04,20,13,18,17.70
2015,04,20,13,19,17.80
2015,04,20,13,20,17.80
2015,04,20,13,21,17.80
2015,04,20,13,22,17.70
2015,04,20,13,23,17.70
2015,04,20,13,24,17.60
2015,04,20,13,25,17.70
2015,04,20,13,26,17.70
2015,04,20,13,27,17.70
2015,04,20,13,28,17.70
2015,04,20,13,29,17.70
2015,04,20,13,30,17.80
2015,04,20,13,31,17.80
2015,04,20,13,32,17.80
2015,04,20,13,33,17.90
2015,04,20,13,34,18.00
2015,04,20,13,35,18.00
2015,04,20,13,36,18.10
2015,04,20,13,37,18.10
2015,04,20,13,38,18.10
2015,04,20,13,39,18.10
2015,04,20,13,40,18.10
2015,04,20,13,41,18.10
2015,04,20,13,42,18.10
2015,04,20,13,43,18.10
2015,04,20,13,44,18.20
2015,04,20,13,45,18.10
2015,04,20,13,46,18.10
2015,04,20,13,47,18.10
2015,04,20,13,48,18.10
2015,04,20,13,49,18.10
2015,04,20,13,50,18.20
2015,04,20,13,51,18.30
2015,04,20,13,52,18.40
2015,04,20,13,53,18.40
2015,04,20,13,54,18.50
2015,04,20,13,55,18.50
2015,04,20,13,56,18.50
2015,04,20,13,57,18.60
2015,04,20,13,58,18.60
2015,04,20,13,59,18.50
2015,04,20,14,00,18.50
2015,04,20,14,01,18.40
2015,04,20,14,02,18.40
2015,04,20,14,03,18.40
2015,04,20,14,04,18.40
2015,04,20,14,05,18.40
2015,04,20,14,06,18.50
2015,04,20,14,07,18.40
2015,04,20,14,08,18.40
2015,04,20,14,09,18.50
2015,04,20,14,10,18.50
2015,04,20,14,11,18.50
2015,04,20,14,12,18.50
2015,04,20,14,13,18.60
2015,04,20,14,14,18.60
2015,04,20,14,15,18.70
2015,04,20,14,16,18.80
2015,04,20,14,17,18.90
2015,04,20,14,18,18.90
2015,04,20,14,19,18.90
2015,04,20,14,20,18.90
2015,04,20,14,21,18.90
2015,04,20,14,22,18.90
2015,04,20,14,23,18.90
2015,04,20,14,24,19.00
2015,04,20,14,25,19.10
2015,04,20,14,26,19.10
2015,04,20,14,27,19.10
2015,04,20,14,28,19.10
2015,04,20,14,29,19.10
2015,04,20,14,30,19.10
2015,04,20,14,31,19.20
2015,04,20,14,32,19.20
2015,04,20,14,33,19.20
2015,04,20,14,34,19.10
2015,04,20,14,35,19.10
2015,04,20,14,36,19.20
2015,04,20,14,37,19.30
2015,04,20,14,38,19.40
2015,04,20,14,39,19.40
2015,04,20,14,40,19.50
2015,04,20,14,41,19.50
2015,04,20,14,42,19.50
2015,04,20,14,43,19.50
2015,04,20,14,44,19.50
2015,04,20,14,45,19.60
2015,04,20,14,46,19.70
2015,04,20,14,47,19.80
2015,04,20,14,48,19.80
2015,04,20,14,49,19.90
2015,04,20,14,50,19.90
2015,04,20,14,51,19.90
2015,04,20,14,52,19.80
2015,04,20,14,53,19.70
2015,04,20,14,54,19.70
2015,04,20,14,55,19.60
2015,04,20,14,56,19.60
2015,04,20,14,57,19.60
2015,04,20,14,58,19.60
2015,04,20,14,59,19.60
2015,04,20,15,00,19.60
2015,04,20,15,01,19.60
2015,04,20,15,02,19.70
2015,04,20,15,03,19.70
2015,04,20,15,04,19.70
2015,04,20,15,05,19.80
2015,04,20,15,06,19.80
2015,04,20,15,07,19.90
2015,04,20,15,08,19.90
2015,04,20,15,09,20.00
2015,04,20,15,10,20.10
2015,04,20,15,11,20.20
2015,04,20,15,12,20.30
2015,04,20,15,13,20.40
2015,04,20,15,14,20.50
2015,04,20,15,15,20.70
2015,04,20,15,16,20.70
2015,04,20,15,17,20.70
2015,04,20,15,18,20.70
2015,04,20,15,19,20.70
2015,04,20,15,20,20.60
2015,04,20,15,21,20.60
2015,04,20,15,22,20.50
2015,04,20,15,23,20.50
2015,04,20,15,24,20.40
2015,04,20,15,25,20.40
2015,04,20,15,26,20.40
2015,04,20,15,27,20.40
2015,04,20,15,28,20.40
2015,04,20,15,29,20.40
2015,04,20,15,30,20.40
2015,04,20,15,31,20.50
2015,04,20,15,32,20.50
2015,04,20,15,33,20.50
2015,04,20,15,34,20.50
2015,04,20,15,35,20.60
2015,04,20,15,36,20.60
2015,04,20,15,37,20.70
2015,04,20,15,38,20.70
2015,04,20,15,39,20.70
2015,04,20,15,40,20.70
2015,04,20,15,41,20.70
2015,04,20,15,42,20.80
2015,04,20,15,43,20.80
2015,04,20,15,44,20.80
2015,04,20,15,45,20.80
2015,04,20,15,46,20.70
2015,04,20,15,47,20.70
2015,04,20,15,48,20.70
2015,04,20,15,49,20.70
2015,04,20,15,50,20.80
2015,04,20,15,51,20.80
2015,04,20,15,52,20.90
2015,04,20,15,53,21.00
2015,04,20,15,54,21.00
2015,04,20,15,55,21.10
2015,04,20,15,56,21.10
2015,04,20,15,57,21.10
2015,04,20,15,58,21.10
2015,04,20,15,59,21.20
2015,04,20,16,00,21.20
2015,04,20,16,01,21.30
2015,04,20,16,02,21.30
2015,04,20,16,03,21.40
2015,04,20,16,04,21.50
2015,04,20,16,05,21.50
2015,04,20,16,06,21.60
2015,04,20,16,07,21.50
2015,04,20,16,08,21.50
2015,04,20,16,09,21.50
2015,04,20,16,10,21.50
2015,04,20,16,11,21.40
2015,04,20,16,12,21.30
2015,04,20,16,13,21.30
2015,04,20,16,14,21.20
2015,04,20,16,15,21.20
2015,04,20,16,16,21.20
2015,04,20,16,17,21.30
2015,04,20,16,18,21.30
2015,04,20,16,19,21.30
2015,04,20,16,20,21.20
2015,04,20,16,21,21.20
2015,04,20,16,22,21.30
2015,04,20,16,23,21.30
2015,04,20,16,24,21.30
2015,04,20,16,25,21.30
2015,04,20,16,26,21.30
2015,04,20,16,27,21.30
2015,04,20,16,28,21.30
2015,04,20,16,29,21.30
2015,04,20,16,30,21.30
2015,04,20,16,31,21.30
2015,04,20,16,32,21.20
2015,04,20,16,33,21.20
2015,04,20,16,34,21.20
2015,04,20,16,35,21.20
2015,04,20,16,36,21.20
2015,04,20,16,37,21.30
2015,04,20,16,38,21.30
2015,04,20,16,39,21.40
2015,04,20,16,40,21.40
2015,04,20,16,41,21.40
2015,04,20,16,42,21.40
2015,04,20,16,43,21.50
2015,04,20,16,44,21.60
2015,04,20,16,45,21.60
2015,04,20,16,46,21.70
2015,04,20,16,47,21.70
2015,04,20,16,48,21.70
2015,04,20,16,49,21.60
2015,04,20,16,50,21.50
2015,04,20,16,51,21.40
2015,04,20,16,52,21.30
2015,04,20,16,53,21.30
2015,04,20,16,54,21.30
2015,04,20,16,55,21.30
2015,04,20,16,56,21.30
2015,04,20,16,57,21.40
2015,04,20,16,58,21.50
2015,04,20,16,59,21.60
2015,04,20,17,00,21.60
2015,04,20,17,01,21.70
2015,04,20,17,02,21.70
2015,04,20,17,03,21.80
2015,04,20,17,04,21.80
2015,04,20,17,05,21.80
2015,04,20,17,06,21.80
2015,04,20,17,07,21.80
2015,04,20,17,08,21.80
2015,04,20,17,09,21.80
2015,04,20,17,10,21.80
2015,04,20,17,11,21.80
2015,04,20,17,12,21.80
2015,04,20,17,13,21.90
2015,04,20,17,14,21.90
2015,04,20,17,15,22.00
2015,04,20,17,16,22.00
2015,04,20,17,17,22.10
2015,04,20,17,18,22.20
2015,04,20,17,19,22.20
2015,04,20,17,20,22.20
2015,04,20,17,21,22.20
2015,04,20,17,22,22.20
2015,04,20,17,23,22.00
2015,04,20,17,24,22.00
2015,04,20,17,25,21.90
2015,04,20,17,26,21.80
2015,04,20,17,27,21.70
2015,04,20,17,28,21.70
2015,04,20,17,29,21.70
2015,04,20,17,30,21.70
2015,04,20,17,31,21.60
2015,04,20,17,32,21.50
2015,04,20,17,33,21.50
2015,04,20,17,34,21.40
2015,04,20,17,35,21.40
2015,04,20,17,36,21.30
2015,04,20,17,37,21.30
2015,04,20,17,38,21.30
2015,04,20,17,39,21.30
2015,04,20,17,40,21.30
2015,04,20,17,41,21.30
2015,04,20,17,42,21.30
2015,04,20,17,43,21.40
2015,04,20,17,44,21.30
2015,04,20,17,45,21.30
2015,04,20,17,46,21.30
2015,04,20,17,47,21.20
2015,04,20,17,48,21.20
2015,04,20,17,49,21.10
2015,04,20,17,50,21.10
2015,04,20,17,51,21.10
2015,04,20,17,52,21.10
2015,04,20,17,53,21.10
2015,04,20,17,54,21.20
2015,04,20,17,55,21.20
2015,04,20,17,56,21.20
2015,04,20,17,57,21.10
2015,04,20,17,58,21.10
2015,04,20,17,59,21.10
2015,04,20,18,00,21.00
2015,04,20,18,01,20.90
2015,04,20,18,02,20.90
2015,04,20,18,03,20.90
2015,04,20,18,04,21.00
2015,04,20,18,05,21.00
2015,04,20,18,06,21.00
2015,04,20,18,07,21.10
2015,04,20,18,08,21.20
2015,04,20,18,09,21.30
2015,04,20,18,10,21.40
2015,04,20,18,11,21.50
2015,04,20,18,12,21.50
2015,04,20,18,13,21.60
2015,04,20,18,14,21.60
2015,04,20,18,15,21.60
2015,04,20,18,16,21.50
2015,04,20,18,17,21.50
2015,04,20,18,18,21.50
2015,04,20,18,19,21.40
2015,04,20,18,20,21.40
2015,04,20,18,21,21.40
2015,04,20,18,22,21.40
2015,04,20,18,23,21.40
2015,04,20,18,24,21.40
2015,04,20,18,25,21.40
2015,04,20,18,26,21.50